Presure
194 187 173 142 161 130 146 157 172 207 206 207 211 213 206 201 199 201 200 196 191 195 211 198 176 180 191 193 159 160 217 144 160 156 184 193 178 161 165 154 153 145 144 139
147 184 140 146 154 144 143 214 211 216 210 198 206 215 216 213 206 213 223 214 201 197 194 196 186 184 184 199 165 180 161 145 144 145 178 177 184 156 183 169 157 153 148 145
144 145 150 136 134 148 193 213 212 201 204 200 209 153 206 199 194 92 204 201 210 195 222 193 196 188 192 171 176 124 150 181 151 157 159 193 162 161 160 171 172 152 151 153
139 171 144 137 125 170 202 204 170 210 166 224 183 178 179 238 199 206 226 200 212 199 219 189 208 192 155 179 169 127 145 159 150 165 133 135 138 172 158 174 166 173 158 164
144 143 147 127 116 137 156 132 208 84 211 176 182 183 178 158 87 196 237 227 211 206 198 205 181 201 175 170 182 167 162 151 162 162 158 157 157 145 175 213 163 170 163 178
150 145 143 127 123 125 199 152 223 176 217 184 182 184 222 219 225 214 234 227 210 209 201 202 185 195 141 155 139 175 170 154 153 167 146 154 144 161 150 164 174 153 160 165
149 153 150 137 115 127 120 148 215 201 217 182 188 191 215 210 202 217 222 219 219 217 203 161 197 197 183 181 175 198 165 168 160 163 196 143 160 187 176 182 173 162 169 165
155 159 154 108 120 121 140 135 178 219 216 182 183 185 200 226 204 195 244 233 206 208 207 203 198 186 201 188 194 161 201 185 180 156 169 149 142 160 172 165 165 140 184 154
151 155 143 147 131 109 150 111 139 194 216 186 179 180 190 186 202 238 230 235 218 205 199 180 189 193 186 193 178 149 157 168 192 176 178 181 130 162 172 164 179 131 126 176
150 162 188 118 142 120 119 134 128 203 193 202 184 176 201 184 195 206 236 234 231 213 202 193 198 188 181 177 167 171 152 161 146 159 166 163 153 190 184 147 169 148 163 130
155 160 163 112 157 142 110 139 131 193 216 206 187 173 146 176 189 201 268 233 260 227 227 202 184 191 196 189 184 166 166 165 164 160 168 153 156 165 171 180 181 178 175 180
194 212 159 158 110 109 131 103 199 179 194 207 256 166 179 181 189 194 276 237 226 252 219 229 203 194 193 187 196 201 183 161 161 164 160 156 168 170 161 164 176 180 178 160
191 156 210 208 175 138 112 129 210 204 187 192 204 195 190 189 186 195 210 252 274 275 225 216 213 218 211 210 210 191 180 201 203 199 169 174 158 152 183 160 179 164 160 168
104 149 195 115 160 173 163 181 137 204 202 201 206 197 137 165 203 204 205 227 239 276 270 242 211 197 200 194 202 179 197 190 187 195 172 182 172 179 186 162 175 167 180 160
221 193 186 137 118 110 176 128 189 169 207 201 202 192 207 201 198 200 205 226 238 233 289 261 243 221 198 198 200 199 188 190 189 189 189 188 178 180 191 188 191 184 187 160
218 196 119 205 122 122 127 113 195 191 197 187 203 202 204 209 206 199 134 228 226 243 250 272 236 252 235 210 203 198 195 199 190 190 189 183 189 191 190 185 190 196 204 207
115 196 194 154 134 125 124 208 115 206 201 206 212 213 204 204 203 195 220 235 218 231 224 287 245 237 240 238 234 226 222 223 219 215 212 208 206 211 215 210 228 217 199 215
119 124 140 138 121 211 202 136 152 222 220 221 197 143 134 133 147 189 220 233 215 227 246 221 252 247 231 228 224 224 227 204 220 216 216 214 208 209 222 213 210 213 196 211
124 192 214 206 237 119 148 124 211 237 233 230 226 226 209 210 227 229 211 229 221 220 219 236 252 218 237 236 227 203 205 206 192 191 214 213 205 211 217 219 212 218 217 227
218 215 221 219 201 160 122 130 369 208 224 225 224 223 143 220 222 211 220 222 226 210 204 222 232 243 217 220 234 201 234 177 191 198 200 205 218 208 211 213 217 230 214 219
273 223 212 214 147 207 249 214 187 192 201 206 225 222 133 226 220 231 229 219 223 222 211 233 223 222 228 223 208 226 209 201 195 217 218 219 211 205 238 270 271 260 244 248
207 210 222 212 217 221 225 224 214 215 228 228 222 226 129 229 223 219 213 216 209 209 210 220 232 221 222 229 222 220 215 214 217 228 219 196 248 264 253 240 224 217 205 202
214 234 241 244 257 247 233 226 224 225 226 215 219 193 230 215 216 217 212 222 224 232 237 244 251 221 238 227 229 225 219 234 220 197 207 253 235 218 205 203 210 214 219 223
199 133 251 240 181 198 223 236 232 229 229 231 230 229 223 223 218 215 223 227 231 236 260 259 252 250 241 225 225 222 211 221 215 212 238 228 206 203 211 209 222 221 227 225
258 204 283 246 243 241 243 240 236 234 236 238 240 238 228 232 235 242 237 232 232 236 248 240 246 258 267 214 198 206 213 225 234 241 227 204 207 206 222 221 218 216 215 213
249 244 241 246 247 245 246 243 242 242 241 242 245 243 242 241 238 244 245 244 240 256 245 249 257 261 202 252 226 217 268 257 239 224 204 206 209 218 223 210 205 207 213 222
Wind_Speed
24 22 17 8 14 6 12 17 17 20 16 15 16 18 22 22 21 22 19 15 15 13 26 27 20 16 15 13 13 15 21 11 6 6 21 30 31 24 34 32 34 33 31 27
11 21 9 10 14 9 10 25 21 18 14 15 16 17 19 16 17 16 17 16 15 16 19 21 19 18 14 13 15 11 12 14 11 9 17 21 27 21 37 34 33 33 33 32
10 12 16 5 5 12 24 24 19 14 12 15 16 9 22 15 16 10 17 14 15 17 24 20 19 19 18 15 12 10 11 14 17 15 12 19 16 17 22 28 34 35 36 38
11 21 13 6 4 20 23 21 14 13 8 2 18 23 24 30 18 16 15 15 17 15 18 19 20 22 12 19 12 14 13 18 15 18 14 11 10 20 18 30 29 35 38 37
16 15 17 2 4 11 15 11 20 7 8 21 21 22 25 17 2 19 14 17 19 19 17 21 18 23 17 14 20 19 18 18 18 20 15 19 18 16 26 35 25 29 31 36
21 20 14 3 4 9 22 16 20 15 10 16 21 24 18 16 15 17 15 15 18 20 19 21 21 21 14 17 13 24 26 22 22 22 19 20 19 20 22 24 30 23 28 33
24 25 20 12 5 8 11 15 20 16 13 17 18 22 18 16 18 15 15 13 19 23 21 24 22 21 25 21 19 21 21 24 28 30 22 16 25 21 22 27 29 27 33 33
28 29 24 2 7 6 14 17 19 20 15 18 19 23 20 17 19 21 17 21 20 22 23 22 21 18 19 21 19 16 18 27 28 25 28 26 24 22 27 28 28 24 30 22
29 28 19 20 8 6 17 12 19 19 16 17 21 28 22 24 22 17 17 20 24 25 24 18 19 20 19 20 23 24 19 17 18 26 22 24 25 31 32 30 29 24 20 33
30 32 34 5 14 9 11 16 17 21 18 17 21 25 27 28 25 24 20 22 24 29 28 25 27 25 24 25 28 27 25 24 27 25 22 23 23 24 26 26 31 29 32 26
34 33 34 4 27 18 11 17 17 21 21 21 22 23 20 33 30 28 18 24 27 30 35 33 25 28 35 29 26 32 29 30 27 29 26 31 30 21 23 26 31 36 37 36
40 38 29 27 8 10 16 10 27 23 23 24 21 29 31 29 32 30 14 22 27 33 35 37 35 32 33 31 35 38 34 34 34 31 35 38 32 30 35 31 30 35 39 38
44 29 43 39 30 20 7 17 31 29 27 27 35 23 35 33 33 36 31 16 17 23 37 37 37 40 36 34 33 35 34 32 35 38 36 38 44 40 38 41 37 39 41 45
11 26 45 11 29 26 25 31 22 33 32 28 32 34 27 30 36 35 35 26 21 19 26 45 41 36 36 34 33 29 37 37 37 42 40 46 43 45 45 43 43 45 45 45
48 45 42 22 15 9 30 23 36 31 34 33 36 33 34 32 36 36 36 24 21 25 23 30 38 53 40 38 39 39 38 39 40 43 48 54 48 52 53 52 50 50 53 51
49 51 14 46 18 18 24 16 41 37 36 33 38 38 37 36 35 37 23 25 23 25 25 31 35 33 47 52 49 45 43 48 47 48 52 51 59 59 56 51 55 63 64 67
18 48 43 23 25 21 16 44 21 42 41 43 43 39 41 40 37 35 33 31 28 25 28 31 35 35 34 34 42 51 56 56 58 60 61 62 60 60 62 61 52 57 48 58
21 22 31 29 20 43 42 28 30 47 48 46 40 27 27 31 31 37 36 31 27 24 26 30 33 36 36 36 37 36 37 40 44 47 48 49 53 54 48 51 52 52 56 57
26 45 48 41 37 22 36 21 42 47 50 49 44 45 40 40 39 37 39 33 33 28 27 27 31 34 35 37 40 46 47 48 35 34 46 46 45 47 48 51 53 55 55 54
55 53 42 34 41 34 25 30 24 48 47 40 45 43 28 44 38 37 40 39 36 34 33 31 31 36 38 39 38 47 44 36 38 41 41 45 45 47 48 49 53 58 55 56
62 61 54 55 33 51 43 39 57 56 49 45 48 47 23 41 43 40 39 41 39 37 36 33 36 36 42 43 42 41 43 50 44 47 49 47 49 49 55 44 42 45 49 49
56 59 62 58 53 57 53 53 61 66 60 53 50 50 25 45 43 44 45 45 42 41 39 39 40 42 41 42 44 44 46 46 46 42 44 47 48 39 36 38 43 46 52 56
61 59 65 64 50 57 62 59 58 60 57 55 55 43 48 48 48 49 49 50 48 46 46 46 44 42 45 43 41 41 40 42 40 42 43 43 42 42 45 48 50 51 52 53
41 30 68 65 50 43 56 61 60 59 57 59 58 55 52 52 51 51 52 52 48 48 48 44 41 42 42 39 37 36 38 41 40 39 44 41 42 46 48 50 50 51 50 52
64 39 61 64 67 68 67 61 61 60 60 60 59 56 55 54 55 55 53 50 50 50 44 40 41 43 41 36 34 36 37 42 38 40 40 42 46 48 49 49 51 53 54 57
71 66 65 65 60 63 61 61 60 60 58 58 57 56 56 55 55 54 52 52 50 48 48 47 43 39 37 41 40 39 32 32 36 38 41 45 48 48 48 52 55 56 59 63
Wind_Direction
259 266 272 302 290 331 321 301 304 289 290 285 278 272 269 272 279 281 278 271 268 232 209 226 262 259 255 250 218 217 211 219 216 252 229 214 215 225 219 229 229 239 241 245
284 265 291 304 303 310 324 285 285 293 303 290 285 287 283 279 277 267 256 250 251 246 240 230 239 253 250 227 220 217 193 199 206 211 250 227 221 232 222 225 234 238 244 245
295 296 292 320 349 309 280 280 287 293 301 291 301 308 278 286 282 110 265 258 242 245 221 242 231 226 230 241 235 213 217 206 220 234 208 234 224 227 235 233 234 241 248 241
288 268 289 321 23 292 282 286 299 295 294 185 297 310 319 295 285 277 246 262 244 240 219 244 225 222 246 229 233 242 220 212 224 259 217 217 226 241 241 238 242 236 236 242
283 284 288 300 337 331 317 326 282 290 280 292 293 292 292 291 143 281 244 231 238 241 238 228 234 223 241 239 227 228 229 232 244 240 236 252 250 238 242 231 239 247 246 246
280 281 290 277 336 329 269 301 279 293 271 277 284 283 282 286 280 272 252 244 240 241 242 237 236 227 252 252 269 229 233 224 242 254 241 247 249 252 240 245 242 241 247 249
280 279 285 288 332 332 334 320 270 275 272 279 281 290 304 299 293 289 272 255 234 234 242 253 234 232 234 241 237 243 229 242 242 255 248 234 261 231 242 235 243 251 255 258
275 275 281 336 334 334 320 318 287 268 266 284 288 287 297 299 294 293 256 250 247 240 237 234 233 231 234 236 235 216 259 245 250 241 251 252 231 255 236 235 234 255 245 249
275 278 286 288 302 309 307 320 318 279 271 273 280 285 291 293 297 286 267 250 238 241 241 236 242 240 230 234 222 256 222 251 253 226 230 242 244 244 242 243 242 253 252 240
277 277 263 276 264 320 310 311 324 283 283 270 277 279 326 293 301 298 278 261 240 235 239 240 238 240 235 225 230 229 251 224 270 216 225 219 248 240 245 254 252 251 251 260
275 276 277 275 284 295 308 304 308 282 275 271 267 280 301 289 294 300 274 258 244 235 232 238 236 237 239 238 234 235 233 237 222 223 231 243 241 228 236 248 250 255 250 248
254 249 276 281 284 288 300 297 280 283 279 281 302 281 280 280 285 290 294 261 251 239 235 233 241 238 245 243 246 250 251 248 242 234 236 234 240 247 234 236 247 248 248 248
255 260 249 252 263 283 285 310 273 275 278 275 281 279 282 281 283 287 294 274 270 251 237 236 236 240 242 243 244 241 243 247 252 238 245 246 243 260 259 243 247 243 246 242
257 270 257 284 268 269 275 273 301 267 269 267 270 273 307 292 284 288 290 284 268 267 245 236 239 240 240 237 241 257 240 238 242 244 252 252 256 260 260 262 244 257 246 253
238 249 254 267 284 289 271 303 278 276 271 273 273 276 278 279 283 284 287 279 280 264 260 242 240 236 255 252 247 246 248 244 242 243 244 247 258 261 266 264 264 260 261 254
241 257 263 254 287 295 303 286 270 277 277 282 274 279 283 280 279 280 297 279 273 289 277 246 243 241 238 241 249 251 251 249 252 251 250 257 256 259 263 267 265 266 266 265
265 249 254 263 279 293 284 264 278 275 278 278 278 279 277 278 279 284 282 284 266 289 267 254 245 243 239 244 245 247 251 255 256 255 256 258 261 263 266 267 268 267 265 269
262 267 271 276 268 266 264 285 290 269 271 272 276 290 300 301 294 275 276 279 269 278 291 265 249 247 247 243 241 245 253 264 252 253 257 265 269 271 270 272 273 273 276 272
260 252 251 262 247 262 282 276 272 276 273 271 273 274 275 275 272 275 272 275 270 275 275 278 260 258 245 242 243 256 255 256 278 277 264 269 280 280 279 276 275 275 275 276
251 251 247 227 258 271 263 291 227 275 264 271 272 273 284 271 271 268 275 273 273 270 263 264 264 255 259 257 252 260 257 267 283 278 278 284 281 278 279 279 278 280 279 279
246 250 248 246 267 251 245 218 262 270 271 267 268 268 286 270 269 272 269 269 271 269 269 266 258 257 255 258 264 259 262 271 270 277 279 279 277 280 283 279 277 276 280 278
257 252 253 254 253 252 255 243 246 254 258 263 264 264 289 268 268 266 267 267 271 272 270 268 262 260 259 256 259 262 266 270 277 276 277 279 285 279 281 283 284 283 284 285
255 251 252 253 256 266 252 253 252 256 259 261 262 265 263 264 265 269 273 273 275 276 278 275 273 263 260 258 260 262 269 270 272 271 278 280 280 282 284 286 282 282 285 286
248 268 252 254 261 263 253 252 252 255 259 261 263 265 266 266 267 270 270 274 279 282 283 274 272 269 262 264 265 269 268 271 274 280 280 279 285 286 285 286 287 287 290 293
251 248 250 248 248 250 255 256 256 258 260 262 263 263 265 269 272 274 273 275 278 282 281 273 270 271 269 261 266 270 279 280 278 271 278 286 285 286 286 287 289 292 295 297
242 245 250 254 255 256 258 260 262 264 265 268 268 268 269 269 270 272 271 273 275 278 273 274 276 275 263 269 270 279 257 259 267 276 284 283 284 285 288 293 297 299 301 300